Regional Weather Roundup
Issued by NWS

Home | Current Version | Previous Version | Graphics & Text | Print | Product List | Glossary On
Versions: 1 2 3 4 5 6 7 8 9 10 11 12 13 14 15 16 17 18 19 20 21 22 23 24 25 26 27 28 29 30 31 32 33 34 35 36 37 38 39 40 41 42 43 44 45 46 47 48 49 50
000
ASUS43 KLOT 221204
RWRIL

ILLINOIS REGIONAL WEATHER ROUNDUP
NATIONAL WEATHER SERVICE CHICAGO/ROMEOVILLE IL
700 AM CDT SUN OCT 22 2017

NOTE: "FAIR" INDICATES FEW OR NO CLOUDS BELOW 12,000 FEET WITH NO
SIGNIFICANT WEATHER AND/OR OBSTRUCTIONS TO VISIBILITY.

* THESE STATIONS ARE NOT UNDER NWS QUALITY CONTROL. THEY ALSO MAY NOT
  REPORT WEATHER SUCH AS PRECIPITATION OR FOG.

ILZ001-002-007-009-015-016-024-221300-
NORTHWEST ILLINOIS

CITY           SKY/WX    TMP DP  RH WIND       PRES   REMARKS
MOLINE         CLOUDY    56  52  86 NW10      29.91R
6HR MIN TEMP:  56; 6HR MAX TEMP:  72; 6HR PCP:  0.23;

STERLING*      LGT RAIN  63  62  97 SE3         N/A
SAVANNA*       RAIN      57  56  96 NW13      29.91R
$$

ILZ003-004-008-010-011-017-018-221300-
NORTH CENTRAL ILLINOIS

CITY           SKY/WX    TMP DP  RH WIND       PRES   REMARKS
ROCKFORD       TSTM      62  60  93 S7        29.91S
6HR MIN TEMP:  62; 6HR MAX TEMP:  68; 6HR PCP:  0.38;

FREEPORT*      LGT RAIN  61  60  99 S6        29.91S
ROCHELLE*      CLOUDY    63  59  87 S8        29.91S
DE KALB*       CLOUDY    64  59  83 S13       29.92S
PERU*          CLOUDY    64  58  81 S8        29.90S THUNDER
$$

ILZ005-006-012>014-019>023-221300-
NORTHEAST ILLINOIS

CITY           SKY/WX    TMP DP  RH WIND       PRES   REMARKS
CHICAGO-OHARE  MOCLDY    65  56  72 S14       29.93R
6HR MIN TEMP:  65; 6HR MAX TEMP:  68;

CHICAGO-MIDWAY CLOUDY    65  56  72 S15       29.94S
6HR MIN TEMP:  65; 6HR MAX TEMP:  68;

AURORA         CLOUDY    65  59  81 SE13      29.92S
6HR MIN TEMP:  65; 6HR MAX TEMP:  68;

LANSING*       PTCLDY    64  56  77 S14G20    29.97R
JOLIET*        CLOUDY    66  59  78 SE7       29.94S
WAUKEGAN       CLOUDY    66  58  75 S14G21    29.92R
6HR MIN TEMP:  64; 6HR MAX TEMP:  68;

DUPAGE AIRPORT CLOUDY    65  59  81 S13       29.92S
6HR MIN TEMP:  65; 6HR MAX TEMP:  67;

KANKAKEE*      MOCLDY    65  56  72 S14G20    29.97S
WHEELING       CLOUDY    66  58  75 S15       29.94S
6HR MIN TEMP:  66; 6HR MAX TEMP:  69;

MORRIS*        PTCLDY    65  58  77 S12G18    29.91S
NORTHERLY ISL    N/A     65  54  67 SE10        N/A
$$

LMZ740>746-221300-
SOUTHERN LAKE MICHIGAN

STATION/POSITION SKY/WX   TEMP    WIND        PRES    VSBY  WAVE
                          AIR SEA DIR/SP/G                  HT/PER
                          (F)     (DEG/KT/KT) (MB)    (MI)  (FT/S)
SOUTHERN BUOY              63 60  140/ 17/ 21 1014.1          3/ 5
WILMETTE HARBOR            62 58  160/ 12/ 17   N/A           3/ 4
HARRISON CRIB              65     180/ 18/ 19   N/A
BURNHAM HARBOR             65     140/  9/ 14   N/A
CALUMET HARBOR             66     170/ 13/ 19 1013.5F
BURNS HARBOR               66     170/ 17/ 24 1014.9F
MICHIGAN CITY              64     150/ 14/ 18   N/A
MICHIGAN CITY 6N           63 58  170/ 16/ 23   N/A           2/ 3
ST. JOSEPH                 64 59  170/ 16/ 21 1015.7F         3/ 4
$$

ILZ025>027-034>036-040-047-049-050-058-095>099-221300-
WEST-CENTRAL ILLINOIS

CITY           SKY/WX    TMP DP  RH WIND       PRES   REMARKS
QUINCY         LGT RAIN  55  54  96 N10       29.92R
MACOMB*        RAIN      55  54  97 NW15      29.93F
JACKSONVILLE*  CLOUDY    68  62  80 S14G21    29.88R
PITTSFIELD*    RAIN      59  58  95 N9        29.91R
$$

ILZ028>032-037-038-041>044-048-051>054-059>061-221300-
CENTRAL ILLINOIS

CITY           SKY/WX    TMP DP  RH WIND       PRES   REMARKS
PONTIAC        PTCLDY    65  61  86 S22G29    29.93S
BLOOMINGTON    CLOUDY    63  60  90 S18G25    29.93F
DECATUR        CLOUDY    66  59  78 S16G23    29.94F
PEORIA         CLOUDY    65  64  97 W5        29.89R
6HR MIN TEMP:  65; 6HR MAX TEMP:  71; 6HR PCP:  0.02;

LACON*         CLOUDY    65  61  86 SW8       29.89R
LINCOLN*       CLOUDY    68  63  82 S16G25    29.90S THUNDER
SPRINGFIELD    CLOUDY    69  62  78 S20G29    29.89S
6HR MIN TEMP:  69; 6HR MAX TEMP:  71;

TAYLORVILLE    CLOUDY    67  60  79 S17G25    29.93R
6HR MIN TEMP:  66; 6HR MAX TEMP:  67;

$$

ILZ033-039-045-046-055>057-062-063-221300-
EAST-CENTRAL ILLINOIS

CITY           SKY/WX    TMP DP  RH WIND       PRES   REMARKS
CHAMPAIGN      CLOUDY    66  57  72 SE18      29.98R
DANVILLE*      MOCLDY    64  55  75 S15       29.98F
RANTOUL*       CLOUDY    64  58  82 SE12G17   29.98R
MATTOON        CLOUDY    64  59  83 S15G22    29.98R
PARIS*         CLOUDY    62  56  82 SE12      30.03R
$$

ILZ079-100>102-221300-
SOUTHWEST ILLINOIS

CITY           SKY/WX    TMP DP  RH WIND       PRES   REMARKS
ALTON          CLOUDY    68  64  88 S18G25    29.90S
CAHOKIA*       CLOUDY    71  64  78 S15       29.88S
SPARTA*        CLOUDY    69  62  79 S14       29.93F
$$

ILZ064>066-069>071-074>076-080>082-084>086-088>090-092>094-221300-
SOUTH-CENTRAL ILLINOIS

CITY           SKY/WX    TMP DP  RH WIND       PRES   REMARKS
CARBONDALE     LGT RAIN  67  63  87 S17G23    29.97R
6HR MIN TEMP:  67; 6HR MAX TEMP:  70; 6HR PCP:  0.02;

CAIRO*         LGT RAIN  65  63  92 SE16      30.00S
EFFINGHAM*     CLOUDY    66  60  81 SE12G17   30.01R
MARION         PTCLDY    70  61  73 S17G25    29.99S
MT. VERNON     CLOUDY    69  61  75 S14       29.99S
CENTRALIA*     CLOUDY    70  63  78 S17G23    29.95F
SALEM*         CLOUDY    69  61  74 SE8       29.97S
METROPOLIS*    CLOUDY    68  61  77 S8        30.03R
$$

ILZ067-068-072-073-078-083-087-091-221300-
SOUTHEAST ILLINOIS

CITY           SKY/WX    TMP DP  RH WIND       PRES   REMARKS
LAWRENCEVILLE  CLOUDY    65  56  72 S17       30.05S
FLORA*         CLOUDY    67  61  79 S13       30.01R
FAIRFIELD*     CLOUDY    67  60  78 S6        30.01R
HARRISBURG*    CLOUDY    68  61  79 S17G23    30.02R
ROBINSON*      CLOUDY    65  56  74 S14       30.05S
CARMI*         CLOUDY    65  59  81 SE12      30.03S
$$

ABBREVIATIONS USED IN REMARKS
   TC - TEMPERATURE IN CELSIUS
  WCI - WIND CHILL INDEX
   HX - HEAT INDEX
  VSB - VISIBILITY
$$




USA.gov is the U.S. government's official web portal to all federal, state and local government web resources and services.